N5BAB Weather Reports


time (UTC)temp
C
wind
direction
speed
KPH
gust
KPH
rain 1hr
cm
rain 24hr
cm
rain mn
cm
humidity
%
barometer
mb
20260510031042 21 136 17.7 40.2 0.00 0.28 0.05 89 1011.5
20260510030542 21 130 14.5 30.6 0.00 0.28 0.05 89 1011.3
20260510030057 21 155 12.9 24.1 0.00 0.28 0.05 89 1011.3
20260510025542 21 180 12.9 27.4 0.00 0.28 0.05 89 1011.1
20260510025042 21 177 12.9 38.6 0.00 0.28 0.05 89 1011.1
20260510024550 21 141 11.3 38.6 0.00 0.28 0.05 89 1011.0
20260510024042 21 107 17.7 37.0 0.00 0.28 0.05 89 1010.8
20260510023542 21 89 17.7 33.8 0.00 0.28 0.05 88 1010.8
20260510023046 21 103 17.7 32.2 0.00 0.28 0.05 88 1010.7
20260510022542 21 151 12.9 32.2 0.00 0.28 0.05 88 1010.7
20260510022042 21 139 12.9 43.5 0.00 0.28 0.05 88 1010.5
20260510021553 22 127 17.7 43.5 0.00 0.28 0.05 87 1010.5
20260510021041 22 177 22.5 43.5 0.00 0.28 0.05 87 1010.5
20260510020539 22 161 12.9 35.4 0.00 0.28 0.05 86 1010.5
20260510020053 22 108 14.5 35.4 0.00 0.28 0.05 85 1010.3
20260510015539 22 132 11.3 35.4 0.00 0.28 0.05 84 1010.3
20260510015038 22 94 11.3 24.1 0.00 0.28 0.05 83 1010.2
20260510014553 22 140 9.7 24.1 0.00 0.28 0.05 82 1010.1
20260510014038 22 51 6.4 16.1 0.00 0.28 0.05 82 1010.1
20260510013543 22 121 8.0 16.1 0.00 0.28 0.05 82 1010.2
20260510013051 22 136 6.4 16.1 0.00 0.28 0.05 82 1010.1
20260510012544 22 118 6.4 22.5 0.00 0.28 0.05 82 1009.9
20260510012042 23 109 8.0 22.5 0.00 0.28 0.05 82 1010.0
20260510011552 23 95 8.0 20.9 0.00 0.28 0.05 81 1010.0
20260510011043 23 91 9.7 22.5 0.00 0.28 0.05 81 1010.0
20260510010542 23 118 8.0 22.5 0.00 0.28 0.05 81 1009.7
20260510010046 23 163 9.7 19.3 0.00 0.28 0.05 80 1009.7
20260510005542 23 163 11.3 19.3 0.00 0.28 0.05 80 1009.6
20260510005041 23 150 8.0 16.1 0.00 0.28 0.05 80 1009.6
20260510004553 23 159 8.0 20.9 0.00 0.28 0.05 80 1009.4
20260510004042 23 128 8.0 20.9 0.00 0.28 0.05 80 1009.4
20260510003542 23 128 9.7 19.3 0.00 0.28 0.05 81 1009.5
20260510003045 23 152 9.7 29.0 0.00 0.28 0.05 81 1009.5
20260510002545 24 161 11.3 29.0 0.00 0.28 0.05 80 1009.5
20260510002042 24 120 12.9 37.0 0.00 0.28 0.05 79 1009.4
20260510001551 25 137 16.1 37.0 0.00 0.28 0.05 79 1009.4
20260510001042 25 128 14.5 29.0 0.00 0.28 0.05 78 1009.3
20260510000545 25 111 8.0 14.5 0.00 0.28 0.05 79 1009.3
20260510000105 25 116 6.4 24.1 0.00 0.28 0.05 78 1009.1
20260509235542 25 54 8.0 24.1 0.00 0.28 0.05 78 1009.1
20260509235042 25 118 9.7 24.1 0.00 0.28 0.05 78 1009.0
20260509234600 25 83 8.0 20.9 0.00 0.28 0.05 78 1009.0
20260509234042 25 86 9.7 20.9 0.00 0.28 0.05 78 1009.0
20260509233541 25 100 9.7 20.9 0.00 0.28 0.05 80 1009.0
20260509233052 25 93 4.8 9.7 0.00 0.28 0.05 83 1008.9
20260509232543 25 91 1.6 9.7 0.00 0.28 0.05 82 1008.8
20260509232042 25 109 3.2 9.7 0.00 0.28 0.05 81 1008.7
20260509231553 25 111 3.2 9.7 0.00 0.28 0.05 82 1008.8
20260509231042 25 83 1.6 4.8 0.00 0.28 0.05 82 1008.8
20260509230544 25 83 1.6 8.0 0.00 0.28 0.05 81 1008.8
20260509230053 25 101 1.6 8.0 0.00 0.28 0.05 81 1008.8
20260509225543 25 132 1.6 6.4 0.00 0.28 0.05 82 1008.8
20260509225038 25 83 1.6 6.4 0.00 0.28 0.05 83 1008.7
20260509224547 25 95 3.2 6.4 0.00 0.28 0.05 83 1008.8
20260509224042 25 107 3.2 6.4 0.00 0.28 0.05 82 1008.6
20260509223543 26 101 3.2 6.4 0.00 0.28 0.05 81 1008.7
20260509223101 26 93 3.2 4.8 0.00 0.28 0.05 82 1008.5
20260509222543 26 24 3.2 4.8 0.00 0.28 0.05 82 1008.6
20260509222042 26 62 1.6 3.2 0.00 0.28 0.05 81 1008.6
20260509221551 26 109 0.0 6.4 0.00 0.28 0.05 78 1008.7
20260509221041 26 143 1.6 6.4 0.00 0.28 0.05 78 1008.6
20260509220542 26 101 1.6 6.4 0.00 0.28 0.05 79 1008.6
20260509220051 26 116 1.6 6.4 0.00 0.28 0.05 79 1008.6
20260509215542 26 76 3.2 6.4 0.00 0.28 0.05 79 1008.5
20260509215042 26 95 3.2 8.0 0.00 0.28 0.05 77 1008.6
20260509214547 26 110 3.2 9.7 0.00 0.28 0.05 75 1008.6
20260509214042 26 136 3.2 11.3 0.00 0.28 0.05 75 1008.6
20260509213542 26 152 3.2 11.3 0.00 0.28 0.05 75 1008.6
20260509213054 26 195 4.8 11.3 0.00 0.28 0.05 75 1008.6
20260509212542 26 130 6.4 11.3 0.00 0.28 0.05 75 1008.8
20260509212042 26 113 3.2 9.7 0.00 0.28 0.05 76 1008.9
20260509211553 26 96 4.8 11.3 0.00 0.28 0.05 74 1008.8
20260509211043 27 107 4.8 11.3 0.00 0.28 0.05 74 1008.8
20260509210543 27 116 4.8 11.3 0.00 0.28 0.05 75 1009.0
20260509210100 27 127 4.8 11.3 0.00 0.28 0.05 73 1009.1
20260509205542 26 154 1.6 9.7 0.00 0.28 0.05 73 1009.1
20260509205042 26 96 4.8 11.3 0.00 0.28 0.05 73 1009.1
20260509204555 27 132 4.8 11.3 0.00 0.28 0.05 74 1009.3
20260509204042 27 122 4.8 11.3 0.00 0.28 0.05 73 1009.1
20260509203542 27 119 3.2 11.3 0.00 0.28 0.05 74 1009.2
20260509203055 27 113 4.8 14.5 0.00 0.28 0.05 74 1009.3
20260509202542 27 359 4.8 17.7 0.00 0.28 0.05 72 1009.4
20260509202042 28 111 4.8 19.3 0.00 0.28 0.05 72 1009.4
20260509201548 29 143 11.3 19.3 0.00 0.28 0.05 69 1009.4
20260509201041 28 138 9.7 17.7 0.00 0.28 0.05 73 1009.5
20260509200542 28 134 9.7 16.1 0.00 0.28 0.05 71 1009.5
20260509200106 27 47 1.6 9.7 0.00 0.28 0.05 70 1009.6
20260509195542 27 38 3.2 14.5 0.00 0.28 0.05 70 1009.5
20260509195041 28 255 4.8 14.5 0.00 0.28 0.05 69 1009.6
20260509194557 28 91 3.2 19.3 0.00 0.28 0.05 72 1009.7
20260509194042 28 219 9.7 19.3 0.00 0.28 0.05 73 1009.8
20260509193542 27 334 6.4 16.1 0.00 0.28 0.05 74 1009.7
20260509193056 27 244 4.8 16.1 0.00 0.28 0.05 73 1009.8
20260509192542 27 255 8.0 14.5 0.00 0.28 0.05 72 1009.9
20260509192042 26 205 6.4 12.9 0.00 0.28 0.05 77 1010.0
20260509191551 26 255 6.4 12.9 0.00 0.28 0.05 76 1010.0
20260509191041 26 202 3.2 12.9 0.00 0.28 0.05 77 1010.1
20260509190541 26 147 6.4 11.3 0.00 0.28 0.05 78 1010.2
20260509190053 26 245 1.6 9.7 0.00 0.28 0.05 76 1010.2
20260509185545 26 74 3.2 9.7 0.00 0.28 0.05 76 1010.2
20260509185043 27 168 3.2 9.7 0.00 0.28 0.05 78 1010.3
20260509184601 26 222 4.8 9.7 0.00 0.28 0.05 78 1010.3
20260509184042 25 224 3.2 8.0 0.00 0.28 0.05 79 1010.3
20260509183542 25 192 1.6 16.1 0.00 0.28 0.05 80 1010.3
20260509183051 25 160 4.8 16.1 0.00 0.28 0.05 81 1010.3
20260509182543 25 120 3.2 11.3 0.00 0.28 0.05 80 1010.3
20260509182042 25 226 4.8 17.7 0.00 0.28 0.05 80 1010.3
20260509181621 25 161 6.4 17.7 0.00 0.28 0.05 81 1010.4
20260509181043 25 165 3.2 16.1 0.00 0.28 0.05 82 1010.5
20260509180541 25 66 4.8 16.1 0.00 0.28 0.05 81 1010.4
20260509180100 25 226 8.0 14.5 0.00 0.28 0.05 81 1010.5
20260509175542 25 242 8.0 16.1 0.00 0.28 0.05 79 1010.5
20260509175042 25 222 8.0 16.1 0.00 0.28 0.05 79 1010.6
20260509174558 25 165 4.8 16.1 0.00 0.28 0.05 79 1010.6
20260509174042 26 219 6.4 14.5 0.00 0.28 0.05 75 1010.7
20260509173542 25 107 4.8 14.5 0.00 0.28 0.05 80 1010.6
20260509173102 25 148 1.6 11.3 0.00 0.28 0.05 82 1010.6
20260509172542 25 76 6.4 11.3 0.00 0.28 0.05 81 1010.6
20260509172043 25 95 3.2 9.7 0.00 0.28 0.05 82 1010.6
20260509171555 25 202 1.6 11.3 0.00 0.28 0.05 79 1010.8
20260509171042 25 255 3.2 12.9 0.00 0.28 0.05 79 1010.7
20260509170543 26 168 6.4 12.9 0.00 0.28 0.05 79 1010.7
20260509170053 26 134 6.4 12.9 0.00 0.28 0.05 84 1010.7
20260509165541 25 105 1.6 12.9 0.00 0.28 0.05 83 1010.8
20260509165043 24 282 1.6 17.7 0.00 0.28 0.05 82 1010.7
20260509164553 25 103 4.8 17.7 0.00 0.28 0.05 83 1010.8
20260509164041 25 39 11.3 17.7 0.00 0.28 0.05 83 1010.7
20260509163541 24 165 6.4 14.5 0.00 0.28 0.05 83 1010.8
20260509163053 23 90 4.8 14.5 0.00 0.28 0.05 84 1010.7
20260509162542 23 57 8.0 14.5 0.00 0.28 0.05 85 1010.7
20260509162044 23 12 1.6 8.0 0.00 0.28 0.05 85 1010.8
20260509161549 23 138 3.2 8.0 0.00 0.28 0.05 85 1010.9
20260509161041 23 229 3.2 8.0 0.00 0.28 0.05 84 1011.0
20260509160542 23 211 3.2 11.3 0.00 0.28 0.05 85 1010.8
20260509160057 23 328 3.2 11.3 0.00 0.28 0.05 86 1010.9
20260509155543 23 328 1.6 8.0 0.00 0.28 0.05 86 1010.9
20260509155041 22 186 1.6 8.0 0.00 0.28 0.05 86 1010.8
20260509154549 22 136 1.6 11.3 0.00 0.28 0.05 86 1010.8
20260509154042 22 276 3.2 11.3 0.00 0.28 0.05 86 1010.8
20260509153541 22 269 6.4 11.3 0.00 0.28 0.05 86 1010.9
20260509153053 22 244 4.8 14.5 0.00 0.28 0.05 86 1010.9
20260509152541 22 288 8.0 16.1 0.00 0.28 0.05 86 1010.9
20260509152042 22 286 8.0 16.1 0.00 0.28 0.05 87 1010.8
20260509151556 22 309 3.2 12.9 0.00 0.28 0.05 87 1010.9
20260509151042 22 284 3.2 9.7 0.00 0.28 0.05 88 1010.9
20260509150541 22 255 3.2 11.3 0.00 0.28 0.05 89 1010.9
20260509150052 22 272 4.8 12.9 0.00 0.28 0.05 89 1011.0
20260509145542 22 288 3.2 16.1 0.00 0.28 0.05 90 1011.0
20260509145043 22 328 6.4 16.1 0.00 0.28 0.05 90 1011.0
20260509144606 21 6 4.8 12.9 0.00 0.28 0.05 91 1010.9
20260509144041 21 276 3.2 12.9 0.00 0.28 0.05 91 1011.0
20260509143542 21 269 4.8 12.9 0.00 0.28 0.05 92 1011.1
20260509143116 21 240 6.4 14.5 0.00 0.28 0.05 92 1011.2
20260509142541 21 235 6.4 14.5 0.00 0.28 0.05 93 1011.1
20260509142041 21 240 6.4 17.7 0.00 0.28 0.05 93 1011.1
20260509141553 21 179 6.4 17.7 0.00 0.28 0.05 93 1011.0
20260509141042 21 251 8.0 17.7 0.00 0.28 0.05 94 1011.0
20260509140543 20 242 8.0 16.1 0.00 0.28 0.05 94 1011.0
20260509140100 20 249 6.4 16.1 0.00 0.28 0.05 94 1011.2
20260509135546 20 284 6.4 14.5 0.00 0.28 0.05 94 1011.1
20260509135046 20 242 3.2 11.3 0.00 0.28 0.05 94 1011.1
20260509134609 20 265 4.8 12.9 0.00 0.28 0.05 94 1011.0
20260509134043 20 303 6.4 12.9 0.00 0.28 0.05 94 1011.1
20260509133544 20 302 4.8 11.3 0.00 0.28 0.05 94 1011.0
20260509133050 20 249 3.2 11.3 0.00 0.28 0.05 94 1011.0
20260509132543 19 211 4.8 11.3 0.00 0.28 0.05 94 1010.8
20260509132046 19 229 3.2 8.0 0.00 0.28 0.05 94 1010.8
20260509131550 19 237 3.2 8.0 0.00 0.28 0.05 94 1010.7
20260509131042 18 255 3.2 8.0 0.00 0.28 0.05 94 1010.9
20260509130543 18 211 1.6 6.4 0.00 0.28 0.05 94 1010.9
20260509130058 18 168 1.6 8.0 0.00 0.28 0.05 94 1010.8
20260509125543 18 0 0.0 8.0 0.00 0.28 0.05 94 1010.9
20260509125042 18 139 1.6 14.5 0.00 0.28 0.05 93 1010.9
20260509124555 18 150 4.8 14.5 0.00 0.28 0.05 93 1011.0
20260509124044 18 174 8.0 14.5 0.00 0.28 0.05 93 1011.1
20260509123545 18 127 6.4 14.5 0.00 0.28 0.05 93 1011.0
20260509123114 18 262 4.8 14.5 0.00 0.28 0.05 93 1011.0
20260509122543 18 149 8.0 14.5 0.00 0.28 0.05 93 1010.9
20260509122042 18 186 6.4 12.9 0.00 0.28 0.05 93 1010.8
20260509121611 18 140 6.4 12.9 0.00 0.28 0.05 93 1010.8
20260509121048 18 150 3.2 8.0 0.00 0.28 0.05 93 1010.8
20260509120543 18 143 3.2 8.0 0.00 0.28 0.05 93 1010.7
20260509120107 18 143 0.0 6.4 0.00 0.28 0.05 93 1010.6
20260509115544 18 168 1.6 6.4 0.00 0.28 0.05 93 1010.4
20260509115042 18 159 1.6 4.8 0.00 0.28 0.05 93 1010.3
20260509114555 18 152 0.0 6.4 0.00 0.28 0.05 93 1010.2
20260509114047 18 139 1.6 6.4 0.00 0.28 0.05 93 1010.1
20260509113546 18 152 3.2 6.4 0.00 0.28 0.05 93 1010.0
20260509113049 18 109 0.0 6.4 0.00 0.28 0.05 92 1010.0
20260509112542 18 0 0.0 11.3 0.00 0.28 0.05 92 1009.8
20260509112042 18 24 1.6 14.5 0.00 0.28 0.05 92 1009.8
20260509111602 18 123 6.4 16.1 0.00 0.28 0.05 92 1009.7
20260509111043 18 155 6.4 16.1 0.05 0.28 0.05 92 1009.6
20260509110544 18 148 8.0 17.7 0.05 0.28 0.05 92 1009.6
20260509110054 18 152 9.7 17.7 0.05 0.28 0.05 92 1009.6
20260509105543 18 154 8.0 16.1 0.05 0.28 0.05 92 1009.6
20260509105041 18 163 8.0 16.1 0.05 0.28 0.05 92 1009.7
20260509104551 18 148 6.4 12.9 0.05 0.28 0.05 92 1009.6
20260509104041 18 168 4.8 9.7 0.05 0.28 0.05 92 1009.5
20260509103540 18 161 3.2 6.4 0.05 0.28 0.05 92 1009.5
20260509103101 18 0 0.0 8.0 0.05 0.28 0.05 92 1009.5
20260509102542 18 359 1.6 8.0 0.05 0.28 0.05 92 1009.5
20260509102040 18 0 4.8 9.7 0.05 0.28 0.05 92 1009.3
20260509101620 18 150 6.4 9.7 0.05 0.28 0.05 92 1009.3
20260509101042 18 168 4.8 11.3 0.00 0.23 0.00 92 1009.5
20260509100545 18 183 6.4 12.9 0.00 0.23 0.00 92 1009.5
20260509100057 18 161 6.4 12.9 0.00 0.23 0.00 92 1009.5
20260509095541 17 177 4.8 11.3 0.00 0.23 0.00 92 1009.6
20260509095042 17 147 6.4 11.3 0.00 0.23 0.00 92 1009.5
20260509094556 17 150 4.8 11.3 0.00 0.23 0.00 92 1009.6
20260509094042 17 130 4.8 11.3 0.00 0.23 0.00 92 1009.7
20260509093542 17 134 4.8 9.7 0.00 0.23 0.00 92 1009.7
20260509093059 17 136 4.8 11.3 0.00 0.23 0.00 92 1009.8
20260509092541 17 119 6.4 11.3 0.00 0.23 0.00 92 1009.9
20260509092041 17 137 6.4 11.3 0.00 0.23 0.00 92 1009.8
20260509091602 17 159 8.0 11.3 0.00 0.23 0.00 92 1009.9
20260509091043 17 154 6.4 11.3 0.00 0.23 0.00 92 1009.8
20260509090543 17 157 6.4 11.3 0.00 0.23 0.00 92 1009.8
20260509085539 17 174 3.2 9.7 0.00 0.23 0.00 91 1009.7
20260509085041 17 152 0.0 3.2 0.00 0.23 0.00 91 1009.6
20260509084555 17 0 1.6 6.4 0.00 0.23 0.00 91 1009.6
20260509084045 17 148 1.6 6.4 0.00 0.23 0.00 91 1009.5
20260509083543 17 127 0.0 6.4 0.00 0.23 0.00 91 1009.5
20260509083054 17 0 0.0 14.5 0.00 0.23 0.00 91 1009.4
20260509082541 17 130 3.2 14.5 0.00 0.23 0.00 91 1009.4
20260509082041 17 157 8.0 12.9 0.00 0.23 0.00 91 1009.3
20260509081559 17 132 1.6 9.7 0.00 0.23 0.00 91 1009.5
20260509081042 17 168 4.8 9.7 0.00 0.23 0.00 91 1009.5
20260509080540 17 168 6.4 9.7 0.00 0.23 0.00 91 1009.4
20260509080050 17 134 0.0 4.8 0.00 0.23 0.00 90 1009.5
20260509075543 17 299 1.6 6.4 0.00 0.23 0.00 90 1009.7
20260509075041 17 309 1.6 11.3 0.00 0.23 0.00 90 1009.7
20260509074551 17 95 3.2 11.3 0.00 0.23 0.00 90 1009.7
20260509074040 17 131 4.8 8.0 0.00 0.23 0.00 90 1009.8
20260509073545 17 148 0.0 6.4 0.00 0.23 0.00 90 1009.8
20260509073101 18 41 1.6 6.4 0.00 0.23 0.00 90 1009.6
20260509072543 18 49 3.2 12.9 0.00 0.23 0.00 90 1009.6
20260509072040 18 58 4.8 12.9 0.00 0.23 0.00 90 1009.6
20260509071553 18 51 4.8 9.7 0.00 0.23 0.00 90 1009.6
20260509071039 18 58 3.2 9.7 0.00 0.23 0.00 90 1009.8
20260509070540 18 66 3.2 9.7 0.00 0.23 0.00 90 1010.0
20260509070054 18 83 1.6 12.9 0.00 0.23 0.00 90 1009.9
20260509065541 18 39 6.4 14.5 0.00 0.23 0.00 90 1010.0
20260509065042 18 53 4.8 14.5 0.00 0.23 0.00 90 1009.9
20260509064601 18 57 6.4 11.3 0.00 0.23 0.00 90 1010.1
20260509064041 18 89 6.4 11.3 0.00 0.23 0.00 90 1010.2
20260509063540 18 66 4.8 16.1 0.00 0.23 0.00 90 1010.2
20260509063050 18 51 8.0 16.1 0.00 0.23 0.00 90 1010.6
20260509062541 18 40 8.0 16.1 0.00 0.23 0.00 90 1010.6
20260509062040 18 44 6.4 16.1 0.00 0.23 0.00 90 1010.5
20260509061547 18 24 3.2 20.9 0.00 0.23 0.00 90 1010.1
20260509061042 18 195 6.4 22.5 0.00 0.23 0.00 90 1010.0
20260509060541 18 165 11.3 24.1 0.00 0.23 0.00 90 1010.0
20260509060056 18 180 9.7 25.7 0.00 0.23 0.00 91 1010.2
20260509055544 18 168 11.3 25.7 0.00 0.23 0.00 91 1010.4
20260509055041 17 185 11.3 24.1 0.00 0.23 0.00 91 1010.4
20260509054600 17 105 8.0 24.1 0.00 0.23 0.00 91 1010.9
20260509054041 17 129 11.3 24.1 0.00 0.23 0.00 91 1010.7
20260509053541 17 152 11.3 20.9 0.00 0.23 0.00 91 1010.8
20260509053055 17 148 9.7 20.9 0.00 0.23 0.00 92 1010.9
20260509052540 17 157 8.0 17.7 0.00 0.23 0.00 92 1010.9
20260509052040 17 198 4.8 9.7 0.00 0.23 0.00 92 1010.7
20260509051546 17 183 3.2 11.3 0.03 0.23 0.00 92 1010.7
20260509051044 17 66 3.2 14.5 0.23 0.23 0.00 91 1010.7
20260509050541 18 92 6.4 14.5 0.23 0.23 0.00 92 1010.9
20260509050046 18 136 8.0 12.9 0.23 0.23 0.00 91 1011.3
20260509045540 18 113 3.2 9.7 0.23 0.23 0.23 91 1011.7
20260509045044 18 168 4.8 9.7 0.23 0.23 0.23 91 1011.7
20260509044551 17 224 4.8 16.1 0.23 0.23 0.23 91 1011.8
20260509044040 17 0 4.8 16.1 0.23 0.23 0.23 91 1011.6
20260509043543 17 146 4.8 17.7 0.23 0.23 0.23 91 1011.1
20260509043047 18 75 3.2 17.7 0.23 0.23 0.23 90 1011.1
20260509042541 18 96 6.4 11.3 0.23 0.23 0.23 89 1011.0
20260509042043 18 83 4.8 11.3 0.23 0.23 0.23 88 1011.8
20260509041615 18 109 4.8 12.9 0.18 0.18 0.18 86 1011.9
20260509041041 18 83 4.8 12.9 0.00 0.00 0.00 85 1012.1
20260509040540 18 83 4.8 11.3 0.00 0.00 0.00 84 1011.9
20260509040046 18 33 1.6 14.5 0.00 0.00 0.00 83 1011.5
20260509035540 19 24 3.2 14.5 0.00 0.00 0.00 82 1011.6
20260509035040 19 47 6.4 11.3 0.00 0.00 0.00 82 1011.4
20260509034544 19 36 4.8 8.0 0.00 0.00 0.00 80 1011.4
20260509034045 20 0 0.0 20.9 0.00 0.00 0.00 78 1011.0
20260509033543 20 255 4.8 20.9 0.00 0.00 0.00 78 1011.0
20260509033052 20 168 11.3 20.9 0.00 0.00 0.00 78 1009.7
20260509032544 20 184 6.4 20.9 0.00 0.00 0.00 77 1009.5
20260509032044 20 215 9.7 22.5 0.00 0.00 0.00 77 1009.3
20260509031555 20 163 11.3 29.0 0.00 0.00 0.00 77 1008.8